Location: Hastringsfeld
(50.9620°N, 10.4787°E)
Time: 11:43:52
(UTC+00:00)

Meteor 1-5 Rocket - Pass Details

Date: 26 September 2023
Orbit: 788 x 915 km, 81.2° (Epoch: 28 November)

Event Time Altitude Azimuth Distance (km) Brightness Sun altitude
Rises 02:49:04 0° 347° (NNW) 3,495 7.6 -22.2°
Reaches altitude 10° 02:51:34 10° 348° (NNW) 2,534 6.8 -21.8°
Maximum altitude 02:57:20 87° 78° (ENE) 859 4.2 -21.0°
Drops below altitude 10° 03:02:52 10° 168° (SSE) 2,429 6.5 -20.2°
Sets 03:05:13 0° 169° (SSE) 3,340 7.2 -19.9°
